Location: Pine Mountain State Resort Park
(36.7364°N, 83.7376°W)
Time: 21:55:46
(UTC-04:00)

Envisat - Visible Passes

Search period start: 21 May 2018 00:00
Search period end: 31 May 2018 00:00
Orbit: 764 x 766 km, 98.2° (Epoch: 21 May)

Date Brightness Start Highest point End Pass type
(mag) Time Alt. Az. Time Alt. Az. Time Alt. Az.
21 May 4.4 21:32:25 10° SSW 21:37:08 39° W 21:41:52 10° NNW visible
23 May 5.3 21:59:01 10° SW 22:02:51 22° W 22:06:43 10° NW visible
24 May 3.9 21:21:02 10° S 21:25:57 50° W 21:30:53 10° NNW visible
25 May 5.8 22:27:04 10° WSW 22:28:41 11° W 22:30:18 10° WNW visible
26 May 4.9 21:47:20 10° SSW 21:51:38 27° W 21:55:57 10° NW visible
27 May 3.5 21:09:45 10° S 21:14:46 65° W 21:19:50 10° NNW visible
28 May 5.6 22:14:32 10° SW 22:17:25 15° W 22:20:17 10° WNW visible
29 May 4.5 21:35:49 10° SSW 21:40:25 35° W 21:45:04 10° NNW visible
